FLOCK 3R-10 (43740 NORAD) Tracking and Keplerian Element Data

This shows tracking and keplerian element data for the satellite.

Feedback or suggestion? Click here.




ElementValue
Catalog43740
NameFLOCK 3R-10
Epoch Orbit175
Epoch Day344.5274078
Epoch Year2018
RAAN49.5285
Inclination97.4836
Eccentricity0.0016778
Argument of Perigee284.0565
Mean Anonmoly191.2375
Mean Motion15.25934265
Decay Rate2.764E-05
L11 43740U 18096X 18344.52740780 .00002764 00000-0 11026-3 0 9997
L22 43740 97.4836 49.5285 0016778 284.0565 191.2375 15.25934265 1752

Live tracking and technical data element details for FLOCK 3R-10 (NORAD 43740). FLOCK 3R-10 can be tracked NOW for your location showing map with azimuth and elevation plus other details from your city location.

Track the satellite on the map from your city or location and see movement details for azimuth, elevation, latitude, longitude, range, height, and movement on the map or in text.







IsCatalogInMostPopularTable: catalog: 43740, numindb: 6
Update: records affected: 1



GetName: 43740 FLOCK 3R-10

Hit Count: updated at: Tue, 11 Dec 2018 02:51:07 GMT